Weather History for KGLD - March, 2015

Change the Weather History Date:

Friday, March 6, 2015

  Actual Average Record
Temperature  
Mean Temperature 43 °F 38 °F  
Max Temperature 61 °F 51 °F 82 °F (1972)
Min Temperature 25 °F 24 °F -13 °F (1948)
Degree Days  
Heating Degree Days 22 27  
Month to date heating degree days 212 168  
Since 1 July heating degree days 4427 4585  
Cooling Degree Days 0 0  
Month to date cooling degree days 0 0  
Year to date cooling degree days 0 0  
Moisture  
Dew Point 19 °F    
Average Humidity 52    
Maximum Humidity 88    
Minimum Humidity 16    
Precipitation  
Precipitation 0.00 in 0.03 in 0.78 in (1990)
Month to date precipitation 0.03 0.16  
Year to date precipitation 1.11 1.03  
Snow  
Snow 0.00 in 0.20 in - ()
Month to date snowfall 0.6 1.1  
Since 1 July snowfall 22.7 25.1  
Snow Depth 0.00 in    
Sea Level Pressure  
Sea Level Pressure 30.28 in    
Wind  
Wind Speed 12 mph (West)    
Max Wind Speed 22 mph    
Max Gust Speed 27 mph    
Visibility 10 miles    
Events      
T = Trace of Precipitation, MM = Missing Value Source: NWS Daily Summary

Daily Weather History Graph

Daily Weather History Graph

Search for Another Location

Airport or City:

Trip Planner

Search our weather history database for the weather conditions in past years. The results will help you decide how hot, cold, wet, or windy it might be!

Date:

Astronomy

Mar. 06, 2015 Rise Set
Actual Time 6:12 AM MST 5:44 PM MST
Civil Twilight 5:45 AM MST 6:11 PM MST
Nautical Twilight 5:14 AM MST 6:42 PM MST
Astronomical Twilight 4:43 AM MST 7:13 PM MST
Moon 6:52 PM MST (3/6) 6:30 AM MST (3/6)
Length of Visible Light 12h 25m
Length of Day
11h 31m
Full, 99% of the Moon is Illuminated
Mar 6
Full
Mar 13
Last Quarter
Mar 20
New
Mar 27
First Quarter
Apr 4
Full

Hourly Weather History & Observations

Time (MST) Temp. Windchill Dew Point Humidity Pressure Visibility Wind Dir Wind Speed Gust Speed Precip Events Conditions
12:53 AM 28.0 °F 18.1 °F 21.9 °F 78% 30.30 in 10.0 mi West 11.5 mph - N/A   Clear
1:53 AM 26.6 °F 17.5 °F 21.2 °F 80% 30.26 in 10.0 mi West 9.2 mph - N/A   Clear
2:53 AM 25.0 °F 17.1 °F 21.0 °F 85% 30.29 in 10.0 mi WSW 6.9 mph - N/A   Clear
3:53 AM 26.1 °F 16.2 °F 19.9 °F 78% 30.29 in 10.0 mi WSW 10.4 mph - N/A   Clear
4:53 AM 26.6 °F 16.8 °F 19.4 °F 74% 30.25 in 10.0 mi WSW 10.4 mph - N/A   Clear
5:53 AM 27.0 °F 17.3 °F 19.0 °F 72% 30.32 in 10.0 mi WSW 10.4 mph - N/A   Clear
6:53 AM 30.0 °F 21.7 °F 19.9 °F 66% 30.32 in 10.0 mi WSW 9.2 mph - N/A   Clear
7:53 AM 39.2 °F 32.5 °F 21.2 °F 49% 30.28 in 10.0 mi WSW 10.4 mph - N/A   Clear
8:53 AM 48.0 °F - 21.0 °F 34% 30.34 in 10.0 mi WSW 12.7 mph - N/A   Clear
9:53 AM 53.1 °F - 18.0 °F 25% 30.33 in 10.0 mi WNW 17.3 mph - N/A   Clear
10:53 AM 55.0 °F - 12.9 °F 19% 30.32 in 10.0 mi WNW 21.9 mph - N/A   Clear
11:53 AM 57.9 °F - 12.9 °F 17% 30.30 in 10.0 mi West 12.7 mph 23.0 mph N/A   Clear
12:53 PM 59.0 °F - 15.8 °F 19% 30.25 in 10.0 mi West 13.8 mph 24.2 mph N/A   Clear
1:53 PM 60.8 °F - 14.0 °F 16% 30.22 in 10.0 mi West 15.0 mph 24.2 mph N/A   Clear
2:53 PM 60.1 °F - 16.0 °F 18% 30.23 in 10.0 mi West 12.7 mph 21.9 mph N/A   Clear
3:53 PM 59.0 °F - 16.0 °F 19% 30.22 in 10.0 mi West 13.8 mph - N/A   Clear
4:53 PM 55.0 °F - 19.0 °F 24% 30.23 in 10.0 mi WSW 11.5 mph - N/A   Clear
5:53 PM 48.2 °F - 21.2 °F 34% 30.22 in 10.0 mi SW 10.4 mph - N/A   Clear
6:53 PM 45.0 °F 39.3 °F 21.0 °F 39% 30.26 in 10.0 mi WSW 11.5 mph - N/A   Clear
7:53 PM 42.1 °F 35.7 °F 24.1 °F 49% 30.26 in 10.0 mi WSW 11.5 mph - N/A   Clear
8:53 PM 36.0 °F 28.0 °F 24.1 °F 62% 30.27 in 10.0 mi WSW 11.5 mph - N/A   Clear
9:53 PM 35.1 °F 27.4 °F 24.1 °F 64% 30.27 in 10.0 mi West 10.4 mph - N/A   Clear
10:53 PM 30.9 °F 22.8 °F 23.0 °F 72% 30.29 in 10.0 mi West 9.2 mph - N/A   Clear
11:53 PM 30.0 °F 22.4 °F 21.9 °F 72% 30.29 in 10.0 mi West 8.1 mph - N/A   Clear